1327017625441,151.168
1327017685441,150.971
1327017745441,151.445
1327017805441,150.979
1327017865441,151.167
1327017925441,151.068
1327017985441,151.427
1327018045441,151.081
1327018105441,151.145
1327018165441,151.506
1327018225441,151.258
1327018285441,150.916
1327018345441,150.897
1327018405441,151.224
1327018465441,151.177
1327018525441,151.386
1327018585441,150.889
1327018645441,151.144
1327018705441,151.286
1327018765441,151.383
1327018825441,151.105
1327018885441,150.747
1327018945441,151.000
1327019005441,150.981
1327019065441,151.170
1327019125441,151.130
1327019185441,151.121
1327019245441,151.160
1327019305441,151.211
1327019365441,150.926
1327019425441,151.366
1327019485441,150.926
1327019545441,151.223
1327019605441,151.265
1327019665441,151.148
1327019725441,151.193
1327019785441,151.208
1327019845441,151.328
1327019905441,151.029
1327019965441,151.167
1327020025441,151.137
1327020085441,151.253
1327020145441,150.935
1327020205441,150.961
1327020265441,151.108
1327020325441,151.219
1327020385441,151.184
1327020445441,151.386
1327020505441,150.927
1327020565441,151.225
1327020625441,151.218
1327020685441,151.351
1327020745441,151.046
1327020805441,151.031
1327020865441,151.170
1327020925441,151.235
1327020985441,151.527
1327021045441,151.255
1327021105441,151.433
1327021165441,151.771
1327021225451,151.645
1327021285451,151.210
1327021345451,151.212
1327021405451,151.508
1327021465451,151.307
1327021525451,151.513
1327021585451,151.390
1327021645451,151.510
1327021705451,151.261
1327021765451,151.474
1327021825451,151.485
1327021885451,151.404
1327021945451,151.687
1327022005451,151.570
1327022065451,151.320
1327022125451,151.589
1327022185451,151.665
1327022245451,151.386
1327022305451,151.572
1327022365451,151.201
1327022425451,151.546
1327022485451,151.618
1327022545451,151.531
1327022605451,151.266
1327022665451,151.418
1327022725451,151.337
1327022785451,151.638
1327022845451,151.290
1327022905451,151.461
1327022965451,151.309
1327023025451,151.269
1327023085451,151.477
1327023145451,151.545
1327023205451,151.667
1327023265451,151.359
1327023325451,151.384
1327023385451,151.425
1327023445451,151.295
1327023505451,151.278
1327023565451,151.222
1327023625451,151.565
1327023685451,151.630
1327023745451,150.727
1327023805451,151.541
1327023865451,151.413
1327023925451,151.585
1327023985451,151.345
1327024045451,151.575
1327024105451,151.596
1327024165451,151.176
1327024225451,151.595
1327024285451,151.436
1327024345451,151.376
1327024405451,151.465
1327024465451,151.548
1327024525451,151.416
1327024585451,151.684
1327024645451,151.521
1327024705451,151.528
1327024765451,151.435
1327024825462,151.544
1327024885462,151.601
1327024945462,151.260
1327025005462,151.991
1327025065462,151.414
1327025125462,151.414
1327025185462,151.356
1327025245462,151.220
1327025305462,151.534
1327025365462,151.292
1327025425462,151.695
1327025485462,151.164
1327025545462,151.304
1327025605462,151.395
1327025665462,151.243
1327025725462,151.571
1327025785462,151.347
1327025845462,150.962
1327025905462,151.422
1327025965462,151.291
1327026025462,151.272
1327026085462,151.339
1327026145462,151.226
1327026205462,151.376
1327026265462,151.552
1327026325462,151.509
1327026385462,151.288
1327026445462,151.370
1327026505462,151.444
1327026565462,150.991
1327026625462,151.392
1327026685462,151.000
1327026745462,151.317
1327026805462,151.675
1327026865462,151.331
1327026925462,151.453
1327026985462,151.522
1327027045462,151.331
1327027105462,151.247
1327027165462,151.276
1327027225462,151.187
1327027285462,151.427
1327027345462,151.160
1327027405462,151.554
1327027465462,151.312
1327027525462,151.291
1327027585462,151.598
1327027645462,151.378
1327027705462,151.429
1327027765462,151.242
1327027825462,151.558
1327027885462,151.362
1327027945462,151.646
1327028005462,151.186
1327028065462,151.154
1327028125462,151.233
1327028185462,151.337
1327028245462,151.495
1327028305462,151.422
1327028365462,151.208
1327028425472,151.311
1327028485472,151.275
1327028545472,151.291
1327028605472,151.558
1327028665472,151.594
1327028725472,151.213
1327028785472,151.229
1327028845472,151.268
1327028905472,151.158
1327028965472,151.191
1327029025472,151.236
1327029085472,151.397
1327029145472,151.117
1327029205472,151.335
1327029265472,151.337
1327029325472,151.304
1327029385472,151.203
1327029445472,151.186
1327029505472,151.142
1327029565472,151.201
1327029625472,151.100
1327029685472,151.312
1327029745472,151.073
1327029805472,151.175
1327029865472,151.260
1327029925472,151.156
1327029985472,151.289
1327030045472,151.475
1327030105472,151.156
1327030165472,151.355
1327030225472,151.104
1327030285472,151.360
1327030345472,151.294
1327030405472,151.083
1327030465472,151.191
1327030525472,151.320
1327030585472,151.394
1327030645472,151.147
1327030705472,151.258
1327030765472,151.129
1327030825472,151.478
1327030885472,151.470
1327030945472,151.163
1327031005472,151.273
1327031065472,151.249
1327031125472,151.110
1327031185472,150.976
1327031245472,150.939
1327031305472,151.478
1327031365472,151.304
1327031425472,151.000
1327031485472,151.238
1327031545472,150.966
1327031605472,150.861
1327031665472,151.136
1327031725472,150.971
1327031785472,151.006
1327031845472,150.826
1327031905472,151.293
1327031965472,151.224
1327032025483,151.191
1327032085483,151.186
1327032145483,151.048
1327032205483,151.075
1327032265483,151.062
1327032325483,150.951
1327032385483,151.291
1327032445483,151.084
1327032505483,150.834
1327032565483,150.811
1327032625483,150.850
1327032685483,150.870
1327032745483,151.049
1327032805483,150.765
1327032865483,150.967
1327032925483,150.934
1327032985483,150.991
1327033045483,151.016
1327033105483,151.165
1327033165483,150.481
1327033225483,150.856
1327033285483,150.720
1327033345483,150.762
1327033405483,151.112
1327033465483,150.858
1327033525483,150.843
1327033585483,150.969
1327033645483,150.615
1327033705483,150.969
1327033765483,151.047
1327033825483,150.567
1327033885483,150.555
1327033945483,151.034
1327034005483,150.773
1327034065483,150.407
1327034125483,150.769
1327034185483,151.000
1327034245483,150.901
1327034305483,150.548
1327034365483,150.974
1327034425483,150.815
1327034485483,150.500
1327034545483,150.558
1327034605483,150.947
1327034665483,150.434
1327034725483,150.574
1327034785483,150.612
1327034845483,150.734
1327034905483,150.658
1327034965483,150.527
1327035025483,150.650
1327035085483,150.963
1327035145483,150.743
1327035205483,150.594
1327035265483,150.827
1327035325483,150.863
1327035385483,151.055
1327035445483,150.699
1327035505483,151.078
1327035565483,150.875
1327035625493,151.070
1327035685493,150.952
1327035745493,150.932
1327035805493,150.750
1327035865493,150.869
1327035925493,151.113
1327035985493,151.196
1327036045493,151.243
1327036105493,151.332
1327036165493,150.977
1327036225493,150.878
1327036285493,151.292
1327036345493,150.901
1327036405493,150.774
1327036465493,151.025
1327036525493,151.026
1327036585493,150.875
1327036645493,151.354
1327036705493,151.184
1327036765493,151.094
1327036825493,151.313
1327036885493,151.251
1327036945493,151.033
1327037005493,150.997
1327037065493,151.172
1327037125493,151.103
1327037185493,150.781
1327037245493,151.079
1327037305493,151.166
1327037365493,151.127
1327037425493,150.881
1327037485493,150.889
1327037545493,151.014
1327037605493,151.031
1327037665493,151.042
1327037725493,151.330
1327037785493,150.870
1327037845493,151.061
1327037905493,151.136
1327037965493,151.307
1327038025493,151.058
1327038085493,151.007
1327038145493,151.151
1327038205493,150.743
1327038265493,151.130
1327038325493,151.250
1327038385493,150.933
1327038445493,151.059
1327038505493,151.399
1327038565493,150.879
1327038625493,150.943
1327038685493,150.767
1327038745493,151.071
1327038805493,150.860
1327038865493,151.117
1327038925493,150.962
1327038985493,150.718
1327039045493,151.087
1327039105493,151.198
1327039165493,151.034
1327039225504,151.329
1327039285504,151.009
1327039345504,151.124
1327039405504,150.871
1327039465504,151.019
1327039525504,150.997
1327039585504,150.872
1327039645504,150.933
1327039705504,150.724
1327039765504,150.967
1327039825504,150.916
1327039885504,150.832
1327039945504,150.940
1327040005504,151.026
1327040065504,150.837
1327040125504,150.780
1327040185504,150.898
1327040245504,150.904
1327040305504,151.009
1327040365504,151.165
1327040425504,150.810
1327040485504,151.076
1327040545504,151.292
1327040605504,151.186
1327040665504,151.146
1327040725504,151.171
1327040785504,151.163
1327040845504,151.221
1327040905504,151.163
1327040965504,151.325
1327041025504,151.084
1327041085504,151.191
1327041145504,151.144
1327041205504,151.180
1327041265504,151.258
1327041325504,151.379
1327041385504,151.042
1327041445504,151.446
1327041505504,151.398
1327041565504,151.273
1327041625504,150.854
1327041685504,151.721
1327041745504,151.499
1327041805504,151.320
1327041865504,151.474
1327041925504,151.393
1327041985504,151.527
1327042045504,151.630
1327042105504,151.601
1327042165504,151.469
1327042225504,151.620
1327042285504,151.413
1327042345504,151.581
1327042405504,151.509
1327042465504,151.685
1327042525504,151.481
1327042585504,151.950
1327042645504,151.436
1327042705504,151.458
1327042765504,151.802
1327042825515,151.646
1327042885515,151.413
1327042945515,151.714
1327043005515,151.673
1327043065515,151.615
1327043125515,151.937
1327043185515,151.735
1327043245515,151.774
1327043305515,151.978
1327043365515,151.859
1327043425515,151.394
1327043485515,151.656
1327043545515,151.701
1327043605515,151.653
1327043665515,151.454
1327043725515,151.726
1327043785515,151.499
1327043845515,151.366
1327043905515,151.884
1327043965515,151.503
1327044025515,151.444
1327044085515,151.638
1327044145515,151.630
1327044205515,152.066
1327044265515,152.149
1327044325515,151.661
1327044385515,151.734
1327044445515,151.606
1327044505515,151.861
1327044565515,151.964
1327044625515,152.070
1327044685515,151.827
1327044745515,151.681
1327044805515,151.868
1327044865515,151.720
1327044925515,151.782
1327044985515,151.750
1327045045515,152.103
1327045105515,151.530
1327045165515,151.979
1327045225515,151.590
1327045285515,151.684
1327045345515,151.613
1327045405515,151.937
1327045465515,151.683
1327045525515,151.933
1327045585515,151.783
1327045645515,151.657
1327045705515,151.953
1327045765515,151.979
1327045825515,151.531
1327045885515,151.901
1327045945515,151.710
1327046005515,151.810
1327046065515,152.112
1327046125515,151.848
1327046185515,151.990
1327046245515,151.861
1327046305515,152.027
1327046365515,152.146
1327046425527,152.082
1327046485527,152.287
1327046545527,152.059
1327046605527,152.027
1327046665527,151.932
1327046725527,152.188
1327046785527,151.974
1327046845527,152.377
1327046905527,152.006
1327046965527,151.846
1327047025527,152.267
1327047085527,152.035
1327047145527,152.170
1327047205527,152.226
1327047265527,152.085
1327047325527,152.189
1327047385527,151.980
1327047445527,152.167
1327047505527,152.135
1327047565527,152.176
1327047625527,152.131
1327047685527,152.510
1327047745527,152.195
1327047805527,152.552
1327047865527,152.599
1327047925527,152.676
1327047985527,152.430
1327048045527,152.485
1327048105527,152.399
1327048165527,152.704
1327048225527,152.039
1327048285527,152.463
1327048345527,152.729
1327048405527,152.454
1327048465527,152.797
1327048525527,152.987
1327048585527,152.390
1327048645527,152.656
1327048705527,152.508
1327048765527,152.690
1327048825527,152.477
1327048885527,152.676
1327048945527,152.706
1327049005527,153.100
1327049065527,152.870
1327049125527,152.653
1327049185527,153.001
1327049245527,152.918
1327049305527,153.023
1327049365527,152.892
1327049425527,152.880
1327049485527,152.771
1327049545527,152.825
1327049605527,152.804
1327049665527,152.894
1327049725527,152.957
1327049785527,153.181
1327049845527,152.507
1327049905527,152.923
1327049965527,153.169
1327050025538,152.907
1327050085538,152.517
1327050145538,152.853
1327050205538,152.762
1327050265538,152.588
1327050325538,153.061
1327050385538,152.822
1327050445538,152.972
1327050505538,153.041
1327050565538,153.192
1327050625538,153.133
1327050685538,152.887
1327050745538,153.237
1327050805538,152.948
1327050865538,153.130
1327050925538,153.007
1327050985538,152.915
1327051045538,152.952
1327051105538,152.907
1327051165538,152.833
1327051225538,153.019
1327051285538,153.190
1327051345538,153.371
1327051405538,152.878
1327051465538,152.775
1327051525538,152.958
1327051585538,152.740
1327051645538,153.017
1327051705538,153.040
1327051765538,152.903
1327051825538,152.949
1327051885538,152.690
1327051945538,153.093
1327052005538,152.769
1327052065538,152.794
1327052125538,152.812
1327052185538,153.062
1327052245538,152.687
1327052305538,152.652
1327052365538,152.796
1327052425538,153.020
1327052485538,152.791
1327052545538,152.987
1327052605538,152.846
1327052665538,152.761
1327052725538,152.987
1327052785538,152.796
1327052845538,152.759
1327052905538,152.589
1327052965538,152.803
1327053025538,153.635
1327053085538,152.687
1327053145538,152.693
1327053205538,152.709
1327053265538,153.023
1327053325538,152.993
1327053385538,152.497
1327053445538,152.837
1327053505538,152.780
1327053565538,152.799
1327053625549,152.468
1327053685549,152.735
1327053745549,152.851
1327053805549,152.646
1327053865549,152.339
1327053925549,152.742
1327053985549,152.943
1327054045549,152.798
1327054105550,152.544
1327054165550,152.877
1327054225550,152.913
1327054285549,153.027
1327054345549,152.926
1327054405550,153.262
1327054465550,153.041
1327054525550,152.755
1327054585550,152.872
1327054645550,152.771
1327054705550,153.057
1327054765550,153.039
1327054825550,153.166
1327054885550,152.705
1327054945550,152.587
1327055005549,153.001
1327055065549,152.836
1327055125549,153.022
1327055185549,152.871
1327055245549,152.977
1327055305549,152.972
1327055365549,152.754
1327055425550,153.014
1327055485550,152.851
1327055545550,152.508
1327055605550,152.671
1327055665549,152.630
1327055725549,152.849
1327055785550,152.693
1327055845550,152.572
1327055905550,152.775
1327055965550,152.692
1327056025550,152.670
1327056085550,152.472
1327056145550,152.796
1327056205550,152.988
1327056265550,152.541
1327056325549,152.579
1327056385549,152.243
1327056445549,152.594
1327056505549,152.706
1327056565549,152.386
1327056625549,152.594
1327056685549,152.457
1327056745549,152.517
1327056805550,152.562
1327056865550,152.312
1327056925550,152.405
1327056985549,152.512
1327057045549,152.323
1327057105550,152.411
1327057165550,152.363
1327057225561,152.339
1327057285561,152.537
1327057345561,152.422
1327057405561,152.158
1327057465561,152.036
1327057525561,152.030
1327057585561,151.824
1327057645561,151.951
1327057705561,152.098
1327057765561,152.031
1327057825561,152.184
1327057885561,151.957
1327057945561,151.945
1327058005561,151.711
1327058065561,152.281
1327058125561,152.286
1327058185561,151.775
1327058245561,151.918
1327058305561,151.928
1327058365561,152.163
1327058425561,152.184
1327058485561,151.811
1327058545561,152.121
1327058605561,151.833
1327058665561,152.092
1327058725561,152.204
1327058785561,152.085
1327058845561,151.586
1327058905561,152.058
1327058965561,151.869
1327059025561,152.212
1327059085561,151.965
1327059145561,151.836
1327059205561,152.113
1327059265561,151.914
1327059325561,152.075
1327059385561,151.910
1327059445561,151.822
1327059505561,152.159
1327059565561,151.704
1327059625561,151.812
1327059685561,151.905
1327059745561,151.792
1327059805561,151.925
1327059865561,151.776
1327059925561,152.088
1327059985561,152.016
1327060045561,151.693
1327060105561,152.011
1327060165561,151.650
1327060225561,151.704
1327060285561,152.201
1327060345561,151.833
1327060405561,152.185
1327060465561,152.150
1327060525561,151.796
1327060585561,151.974
1327060645561,151.904
1327060705561,151.917
1327060765561,151.769
1327060825573,152.114
1327060885573,152.002
1327060945573,152.190
1327061005573,151.916
1327061065573,151.915
1327061125573,152.036
1327061185573,151.992
1327061245573,151.822
1327061305573,151.786
1327061365573,152.070
1327061425573,151.740
1327061485573,151.841
1327061545573,151.874
1327061605573,152.179
1327061665573,151.911
1327061725573,151.776
1327061785573,151.804
1327061845573,151.731
1327061905573,152.186
1327061965573,151.859
1327062025573,151.794
1327062085573,151.607
1327062145573,151.850
1327062205573,152.076
1327062265573,151.790
1327062325573,151.753
1327062385573,151.761
1327062445573,152.023
1327062505573,152.054
1327062565573,151.552
1327062625573,151.898
1327062685573,151.842
1327062745573,151.543
1327062805573,152.132
1327062865573,151.759
1327062925573,152.030
1327062985573,151.813
1327063045573,151.523
1327063105573,151.543
1327063165573,151.561
1327063225573,151.734
1327063285573,151.449
1327063345573,151.326
1327063405573,151.503
1327063465573,151.363
1327063525573,151.402
1327063585573,151.404
1327063645573,151.285
1327063705573,151.525
1327063765573,151.219
1327063825573,151.464
1327063885573,151.662
1327063945573,151.206
1327064005573,151.287
1327064065573,151.170
1327064125573,150.923
1327064185573,151.445
1327064245573,151.483
1327064305573,151.296
1327064365573,151.458
1327064425584,151.363
1327064485584,151.577
1327064545584,151.572
1327064605584,151.368
1327064665584,151.593
1327064725584,151.477
1327064785584,151.372
1327064845584,151.656
1327064905584,151.893
1327064965584,151.554
1327065025584,151.620
1327065085584,151.470
1327065145584,151.292
1327065205584,151.250
1327065265584,151.591
1327065325584,151.215
1327065385584,151.262
1327065445584,151.467
1327065505584,151.444
1327065565584,151.438
1327065625584,151.720
1327065685584,151.271
1327065745584,151.445
1327065805584,151.323
1327065865584,151.570
1327065925584,151.442
1327065985584,151.369
1327066045584,151.392
1327066105584,151.630
1327066165584,151.501
1327066225584,151.606
1327066285584,151.545
1327066345584,151.593
1327066405584,151.809
1327066465584,151.722
1327066525584,151.734
1327066585584,151.346
1327066645584,151.302
1327066705584,151.708
1327066765584,151.723
1327066825584,151.695
1327066885584,151.875
1327066945584,151.498
1327067005584,151.648
1327067065584,151.722
1327067125584,151.673
1327067185584,151.248
1327067245584,151.512
1327067305584,151.633
1327067365584,151.549
1327067425584,151.499
1327067485584,151.708
1327067545584,151.923
1327067605584,151.484
1327067665584,151.907
1327067725584,151.632
1327067785584,151.504
1327067845584,151.520
1327067905584,151.381
1327067965584,151.389
1327068025611,151.506
1327068085611,151.649
1327068145611,151.595
1327068205611,151.548
1327068265611,151.605
1327068325611,151.525
1327068385611,151.629
1327068445611,151.724
1327068505611,151.829
1327068565611,151.953
1327068625611,152.017
1327068685611,151.817
1327068745611,151.659
1327068805611,151.676
1327068865611,151.968
1327068925611,151.928
1327068985611,152.082
1327069045611,151.925
1327069105611,151.753
1327069165611,152.009
1327069225611,152.221
1327069285611,151.914
1327069345611,152.067
1327069405611,151.769
1327069465611,152.018
1327069525611,152.046
1327069585611,151.753
1327069645611,152.007
1327069705611,151.820
1327069765611,152.064
1327069825611,151.892
1327069885611,152.134
1327069945611,151.822
1327070005611,152.104
1327070065611,152.032
1327070125611,151.819
1327070185611,151.853
1327070245611,152.027
1327070305611,152.174
1327070365611,152.115
1327070425611,151.998
1327070485611,151.830
1327070545611,152.076
1327070605611,152.175
1327070665611,152.214
1327070725611,152.002
1327070785611,152.164
1327070845611,152.122
1327070905611,152.027
1327070965611,152.333
1327071025611,152.235
1327071085611,152.126
1327071145611,152.124
1327071205611,152.103
1327071265611,152.304
1327071325611,151.985
1327071385611,151.941
1327071445611,152.025
1327071505611,152.037
1327071565611,152.006
1327071625622,152.198
1327071685622,152.052
1327071745622,152.148
1327071805622,151.975
1327071865622,152.392
1327071925622,152.171
1327071985622,152.469
1327072045622,152.096
1327072105622,151.982
1327072165622,152.108
1327072225622,152.153
1327072285622,152.385
1327072345622,152.203
1327072405622,152.005
1327072465622,152.137
1327072525622,152.003
1327072585622,151.701
1327072645622,151.695
1327072705622,152.026
1327072765622,151.909
1327072825622,151.795
1327072885622,151.854
1327072945622,152.002
1327073005622,151.730
1327073065622,151.845
1327073125622,151.623
1327073185622,151.999
1327073245622,151.572
1327073305622,152.058
1327073365622,151.930
1327073425622,151.716
1327073485622,151.690
1327073545622,151.727
1327073605622,151.824
1327073665622,151.940
1327073725622,151.791
1327073785622,151.780
1327073845622,151.551
1327073905622,151.415
1327073965622,151.636
1327074025622,151.871
1327074085622,151.841
1327074145622,151.638
1327074205622,151.542
1327074265622,151.575
1327074325622,151.685
1327074385622,151.685
1327074445622,151.541
1327074505622,151.800
1327074565622,151.735
1327074625622,151.766
1327074685622,151.782
1327074745622,151.439
1327074805622,151.829
1327074865622,151.563
1327074925622,151.736
1327074985622,151.854
1327075045622,151.871
1327075105622,151.310
1327075165622,151.603
1327075225634,151.919
1327075285634,151.559
1327075345634,151.710
1327075405634,151.838
1327075465634,152.110
1327075525634,151.839
1327075585634,151.844
1327075645634,151.803
1327075705634,152.013
1327075765634,152.003
1327075825634,151.747
1327075885634,152.029
1327075945634,151.903
1327076005634,152.054
1327076065634,152.058
1327076125634,151.834
1327076185634,152.082
1327076245634,152.108
1327076305634,151.924
1327076365634,151.872
1327076425634,151.826
1327076485634,151.922
1327076545634,152.029
1327076605634,152.175
1327076665634,151.735
1327076725634,151.893
1327076785634,151.877
1327076845634,151.935
1327076905634,151.805
1327076965634,151.796
1327077025634,151.919
1327077085634,152.062
1327077145634,151.889
1327077205634,151.845
1327077265634,151.976
1327077325634,151.863
1327077385634,151.923
1327077445634,151.826
1327077505634,151.814
1327077565634,151.700
1327077625634,151.904
1327077685634,151.754
1327077745634,152.147
1327077805634,152.034
1327077865634,151.875
1327077925634,151.764
1327077985634,152.214
1327078045634,151.675
1327078105634,151.975
1327078165634,151.861
1327078225634,152.130
1327078285634,151.832
1327078345634,152.204
1327078405634,152.171
1327078465634,151.797
1327078525634,151.557
1327078585634,152.299
1327078645634,151.826
1327078705634,151.960
1327078765634,152.055
1327078825645,151.905
1327078885645,151.969
1327078945645,151.954
1327079005645,151.843
1327079065645,151.739
1327079125645,151.765
1327079185645,152.094
1327079245645,151.442
1327079305645,151.553
1327079365645,151.529
1327079425645,151.738
1327079485645,151.663
1327079545645,151.643
1327079605645,151.562
1327079665645,151.620
1327079725645,151.714
1327079785645,151.639
1327079845645,151.714
1327079905645,151.863
1327079965645,151.450
1327080025645,151.707
1327080085645,151.537
1327080145645,151.714
1327080205645,151.867
1327080265645,151.586
1327080325645,151.383
1327080385645,151.780
1327080445645,151.700
1327080505645,151.961
1327080565645,151.340
1327080625645,151.831
1327080685645,151.464
1327080745645,151.385
1327080805645,151.727
1327080865645,151.618
1327080925645,152.195
1327080985645,151.722
1327081045645,151.379
1327081105645,151.703
1327081165645,152.062
1327081225645,152.038
1327081285645,151.696
1327081345645,151.784
1327081405645,151.917
1327081465645,151.312
1327081525645,151.526
1327081585645,151.895
1327081645645,151.987
1327081705645,151.803
1327081765645,152.067
1327081825645,151.625
1327081885645,152.102
1327081945645,151.974
1327082005645,152.124
1327082065645,151.706
1327082125645,152.249
1327082185645,152.244
1327082245645,151.816
1327082305645,151.665
1327082365645,151.874
1327082425656,152.197
1327082485656,152.159
1327082545656,152.087
1327082605656,151.860
1327082665656,151.880
1327082725656,151.975
1327082785656,152.004
1327082845656,151.915
1327082905656,152.173
1327082965656,152.120